Regional Weather Roundup
Issued by NWS

Home | Current Version | Previous Version | Graphics & Text | Print | Product List | Glossary Off
Versions: 1 2 3 4 5 6 7 8 9 10 11 12 13 14 15 16 17 18 19 20 21 22 23 24 25 26 27 28 29 30 31 32 33 34 35 36 37 38 39 40 41 42 43 44 45 46 47 48 49 50

034
ASUS43 KMKX 051521
RWRWI

WISCONSIN REGIONAL WEATHER ROUNDUP
NATIONAL WEATHER SERVICE MILWAUKEE/SULLIVAN WI
1000 AM CDT THU MAY 05 2016

NOTE: "FAIR" INDICATES FEW OR NO CLOUDS BELOW 12,000 FEET WITH NO
SIGNIFICANT WEATHER AND/OR OBSTRUCTIONS TO VISIBILITY.

WIZ001-002-006>008-014>016-023>028-051600-
NORTHWEST WISCONSIN

CITY           SKY/WX    TMP DP  RH WIND       PRES   REMARKS
SUPERIOR ARPT  MOSUNNY   51  41  67 SW9       30.00F
ASHLAND        MOSUNNY   59  32  36 SW10      30.01F
HAYWARD        MOSUNNY   55  31  39 SW8       30.04F
SIREN          PTSUNNY   51  40  68 SW8       30.06S
CUMBERLAND     PTSUNNY   54  32  43 SW8       30.06S
RICE LAKE      MOSUNNY   57  30  36 SW3       30.07S
CHETEK         SUNNY     56  35  44 SW6       30.06R
LADYSMITH      CLOUDY    51  35  52 SW5       30.08S
EAU CLAIRE     SUNNY     54  35  48 S5        30.07S
MENOMONIE      SUNNY     59  34  39 S7        30.06F
NEW RICHMOND   PTSUNNY   52  35  52 S7        30.07S
OSCEOLA        PTSUNNY   55  36  48 S10       30.09S
$$

WIZ003>005-009-010-017-018-051600-
NORTH CENTRAL WISCONSIN

CITY           SKY/WX    TMP DP  RH WIND       PRES   REMARKS
MANITOWISH WTR SUNNY     53  32  45 W6        30.03F
ARBOR VITAE    SUNNY     52  32  45 NW6       30.03F
WOODRUFF       SUNNY     52  32  45 NW6       30.03F
RHINELANDER    SUNNY     53  31  42 NW7       30.04S
EAGLE RIVER    SUNNY     52  29  40 NW6       30.03S
LAND O LAKES   SUNNY     53  28  37 NW6       30.03F
PHILLIPS       PTSUNNY   49  33  53 SW5       30.05S
TOMAHAWK       SUNNY     52  32  46 W3        30.05F
MEDFORD        SUNNY     49  36  59 CALM      30.05S
MERRILL        SUNNY     50  36  57 SW6       30.06S
$$

WIZ029-030-035-036-043>047-051600-
CENTRAL WISCONSIN

CITY           SKY/WX    TMP DP  RH WIND       PRES   REMARKS
WAUSAU         SUNNY     51  35  54 NW5       30.04S
MOSINEE        SUNNY     50  36  57 CALM      30.07S
MARSHFIELD     SUNNY     52  35  52 CALM      30.05S
STEVENS POINT  SUNNY     49  34  56 NW3       30.06S
WAUPACA        SUNNY     52  36  54 CALM      30.06S
WAUTOMA        SUNNY     51  35  54 VRB3      30.06F
WISC RAPIDS    SUNNY     51  34  52 VRB5      30.07F
CAMP DOUGLAS   MOSUNNY   52  41  66 NW5       30.07S
$$

WIZ011>013-019>022-031-037>040-048>050-051600-
NORTHEAST WISCONSIN

CITY           SKY/WX    TMP DP  RH WIND       PRES   REMARKS
ANTIGO         SUNNY     48  36  64 CALM      30.04F
SHAWANO        SUNNY     51  34  53 CALM      30.06R
OCONTO         SUNNY     49  36  60 N5        30.04S
STURGEON BAY   SUNNY     45  36  70 N6        30.06S
GREEN BAY      SUNNY     50  36  58 NE7       30.05R
MANITOWOC      SUNNY     50  38  63 N9        30.04S
APPLETON       SUNNY     46  34  61 CALM      30.04R
CLINTONVILLE   SUNNY     50  34  53 CALM      30.05S
OSHKOSH        SUNNY     49  35  58 VRB3      30.05R
$$

WIZ032>034-041-042-053>061-051600-
SOUTHWEST WISCONSIN

CITY           SKY/WX    TMP DP  RH WIND       PRES   REMARKS
LA CROSSE      SUNNY     54  36  50 VRB3      30.09S
SPARTA         SUNNY     52  36  54 CALM      30.09R
VIROQUA        SUNNY     51  35  55 N5        30.07S
BOSCOBEL       SUNNY     54  35  48 VRB3      30.08S
PRAIRIE DU CHI SUNNY     53  35  50 W6        30.08S
PLATTEVILLE    SUNNY     50  39  64 N6        30.07S
$$

WIZ056-057-062-063-064-067-068-051600-
SOUTH CENTRAL WISCONSIN

CITY           SKY/WX    TMP DP  RH WIND       PRES   REMARKS
REEDSBURG      SUNNY     50  36  59 CALM      30.06F
BARABOO/DELLS  SUNNY     50  33  52 NW5       30.06F
LONE ROCK      SUNNY     52  37  56 CALM      30.08S
MINERAL POINT  SUNNY     52  36  54 N3        30.06S
MADISON        SUNNY     50  35  56 N10       30.05S
MIDDLETON      SUNNY     50  37  61 NW7       30.06S
WATERTOWN      SUNNY     50  39  65 N7        30.04S
MONROE         SUNNY     50  37  62 N8        30.05S
JANESVILLE     SUNNY     52  37  58 N9        30.04R
$$

WIZ051-052-058>065-066-070>072-051600-
SOUTHEAST WISCONSIN

CITY           SKY/WX    TMP DP  RH WIND       PRES   REMARKS
MILWAUKEE      MOSUNNY   48  37  65 NE15      30.03R
WAUKESHA       SUNNY     50  37  62 N9        30.04R
MILWAUKEE/TIMM SUNNY     52  36  54 N7        30.03S
RACINE         MOSUNNY   48  37  65 N18G28    30.04R
BURLINGTON     SUNNY     49  36  61 NE9       30.02S
KENOSHA        MOSUNNY   50  39  66 N10       30.02R
FOND DU LAC    SUNNY     50  38  63 NE7       30.05R
SHEBOYGAN      SUNNY     51  39  63 NE9       30.03S
WEST BEND      SUNNY     50  36  57 N6        30.03S
JUNEAU         SUNNY     48  37  66 N7        30.05S
$$

LSZ147-162-051600-
LAKE SUPERIOR

STATION/POSITION TIME  TEMP    WIND        PRES    WAVE
                       AIR SEA DIR/SP/G            HT/PER
                 (UTC) (F)     (DEG/KT/KT) (MB)    (FT/S)
W MID LAKE BUOY  1450   38 37  210/  8/ 10 1016.8F   0
DEVILS ISLAND    1500   43     230/  5/  7 1016.4F
SAXON HARBOR     1400   52     190/  6/  9 1016.6
$$

LMZ867-665-643>646-051600-
LAKE MICHIGAN

STATION/POSITION TIME  TEMP    WIND        PRES    WAVE
                       AIR SEA DIR/SP/G            HT/PER
                 (UTC) (F)     (DEG/KT/KT) (MB)    (FT/S)
CHAMBERS ISLAND  1400   44     350/  5/  7 1017.3S
N MID LAKE BUOY  1450   39 39  300/  8/  8 1016.9R   1/ 4
NORTHPORT PIER   1400   39     330/ 10/ 11 1017.3R
ALGOMA LAKESHORE 1415           40/  9/ 12   N/A
KEWAUNEE LAKESHO 1500   46      50/  4/  6 1016.3R
SHEBOYGAN LAKESH 1500   43      10/  9/ 10 1017.9R
PORT WASHINGTON  1400   48      30/  6/ 11 1017.6
S MID LAKE BUOY  1450   40 40   10/ 17/ 19 1015.6R   5/ 7
KENOSHA   LAKESH 1500   44      10/ 18/ 20 1016.6R
$$

TC  - TEMPERATURE IN CELSIUS
VSB - VISIBILITY IN STATUTE MILES
WCI - WIND CHILL INDEX
HX  - HEAT INDEX





USA.gov is the U.S. government's official web portal to all federal, state and local government web resources and services.